Location: Châteauvieux
(47.2310°N, 1.3828°E)
Time: 23:35:16
(UTC+00:00)

Cosmos 1470 - Pass Details

Date: 15 May 2026
Orbit: 420 x 430 km, 82.5° (Epoch: 11 June)

Event Time Altitude Azimuth Distance (km) Brightness Sun altitude
Rises 22:45:37 0° 352° (N) 2,386 7.5 -22.1°
Reaches altitude 10° 22:47:40 10° 354° (N) 1,515 6.2 -22.2°
Enters shadow 22:50:19 53° 12° (NNE) 525 2.9 -22.3°
